Hourly Data Report for February 20, 2002

SHERBROOKE A
QUEBEC

45°26'00.000" N
71°41'00.000" W
241.40 m
7028124
71610
YSC

Download Data

Hourly Data (February 2002)
Hourly Data Report for February 20, 2002
TIME
LST
Temp Definition
°C
Dew Point Definition
°C
Rel Hum Definition
%
Precip. Amount Definition
mm

Wind Dir Definition
10's deg

Wind Spd Definition
km/h
Visibility Definition
km
Stn Press Definition
kPa
Hmdx Definition


Wind Chill Definition


Weather Definition


00:00 -1.3 -6.6 67   2 4 15.0 99.24   -3  
01:00 -1.3 -6.8 66   10 4 15.0 99.23   -3  
02:00 -2.4 -6.7 72     0 15.0 99.23      
03:00 -2.9 -6.3 77   9 4 15.0 99.19   -4  
04:00 -2.1 -6.7 71   10 4 15.0 99.18   -4  
05:00 -2.1 -6.7 71   6 11 15.0 99.12   -6  
06:00 -2.4 -6.6 73   6 9 15.0 99.06   -6  
07:00 -2.0 -6.5 71   4 9 15.0 99.08   -5  
08:00 -1.5 -6.2 70   8 7 24.1 99.14   -4 Cloudy
09:00 -0.6 -5.7 68   6 9 24.1 99.09   -4 Cloudy
10:00 0.4 -5.0 67   6 7 24.1 98.99     Cloudy
11:00 1.1 -4.6 66   4 11 24.1 98.88     Cloudy
12:00 3.4 -3.8 59   4 9 24.1 98.75     Cloudy
13:00 5.4 -5.2 46   13 15 24.1 98.74     Cloudy
14:00 5.6 -5.8 44   11 13 24.1 98.59     Cloudy
15:00 5.2 -4.6 49   12 15 24.1 98.50     Cloudy
16:00 5.7 -5.9 43   12 19 24.1 98.40     Cloudy
17:00 5.8 -6.4 41   14 7 24.1 98.41     Cloudy
18:00 4.4 -5.7 48   12 19 15.0 98.36      
19:00 4.1 -6.2 47   12 19 15.0 98.18      
20:00 3.7 -5.2 52   12 20 15.0 98.12      
21:00 3.6 -5.0 53   15 13 15.0 98.15      
22:00 4.3 -3.6 56   14 13 15.0 98.17      
23:00 2.5 -0.4 81   7 7 8.0 98.09     Moderate Rain

Notes on Data Quality.

Legend

  • E = Estimated
  • M = Missing
  • NA = Not Available*
  • [empty] = Indicates an unobserved value
Date modified: